Wind_Speed
16 15 13 11 11 13 13 13 17 15 16 16 18 17 16 17 18 20 23 25 26 26 24 24 28 24 25 27 29 31 28 25 19 29 30 29 27 33 38 41 41 41 42
15 14 14 12 10 7 1 4 7 14 15 15 16 11 8 7 8 9 10 12 11 7 4 6 7 4 3 5 7 6 8 13 19 21 22 25 26 30 31 35 39 38 38
14 14 15 15 14 14 13 11 11 16 14 13 11 9 7 5 5 5 5 5 6 6 5 5 6 7 7 10 10 11 13 16 19 15 13 21 25 23 26 26 28 31 33
14 15 16 17 17 18 16 18 16 15 17 16 16 14 12 10 9 9 9 9 9 9 9 9 9 10 10 11 12 13 13 14 15 14 14 15 17 23 26 24 26 30 34
15 18 16 16 18 18 20 20 20 20 20 19 19 18 17 16 13 12 11 12 11 11 12 10 12 11 12 11 11 13 13 14 12 14 14 15 18 23 20 22 24 27 32
16 16 16 18 22 21 22 24 23 22 22 23 23 23 23 22 18 17 15 15 14 13 12 12 12 15 14 13 13 10 10 10 11 11 12 16 19 22 21 25 25 22 8
15 20 21 20 23 23 22 25 26 23 21 23 19 22 25 20 17 19 19 17 16 15 14 16 16 16 16 14 12 12 13 12 10 11 14 18 22 24 26 26 26 25 24
15 15 15 15 18 21 24 28 20 19 17 13 17 19 23 22 17 20 18 16 16 15 16 16 14 14 17 16 16 16 15 15 16 14 13 15 18 22 21 23 27 29 29
10 10 11 15 15 18 22 20 15 14 14 15 17 17 22 20 19 21 17 17 15 16 14 16 15 16 17 14 14 15 17 19 17 17 16 15 16 16 18 21 20 20 17
8 10 10 14 15 19 17 17 16 15 14 14 16 17 18 21 22 20 18 16 17 14 14 15 16 13 13 15 14 17 16 19 20 23 24 20 20 20 21 16 18 17 18
9 11 11 12 14 16 16 16 15 16 17 18 19 16 16 17 18 19 19 18 16 14 15 15 15 12 13 14 15 15 13 14 17 19 22 25 27 28 27 23 21 17 17
8 10 12 12 14 14 15 14 14 15 15 15 14 15 20 20 19 19 18 17 15 15 13 13 11 13 15 17 18 15 17 19 18 18 17 19 22 26 27 22 19 18 16
7 10 12 13 13 13 14 14 14 13 13 11 10 12 15 19 19 17 16 14 14 14 12 13 13 14 17 17 21 23 21 16 16 17 17 19 19 22 21 22 17 18 15
6 5 8 10 12 12 12 12 12 11 10 10 11 12 11 13 14 14 13 13 12 10 11 12 15 16 20 20 22 21 21 20 16 14 15 16 20 22 21 21 18 22 13
7 6 5 6 8 10 11 10 10 10 9 9 9 7 7 9 11 9 10 6 6 8 11 13 16 18 19 22 21 21 21 20 19 17 17 18 19 19 19 19 17 17 15
7 6 6 6 6 7 8 8 8 7 8 8 7 7 5 4 5 2 4 7 7 10 13 14 15 16 16 15 15 16 18 20 19 16 15 16 17 18 17 16 16 16 15
11 10 8 7 8 9 10 8 8 6 4 4 4 5 1 1 2 3 5 7 7 9 13 12 11 12 12 12 13 14 15 18 17 15 14 15 16 15 17 17 16 14 13
13 12 10 10 10 11 11 10 9 7 5 4 3 4 4 3 4 3 4 5 7 10 10 9 9 9 10 12 13 15 15 16 18 17 18 17 16 14 14 14 14 13 12
18 15 14 12 11 12 13 12 10 9 8 7 6 6 5 5 4 4 4 5 7 6 6 6 7 8 10 11 12 14 15 16 18 19 18 17 16 14 13 12 11 14 12
24 21 19 17 15 14 16 17 16 14 13 11 10 9 8 8 6 5 5 5 5 5 5 5 6 7 8 10 11 12 12 15 17 17 17 16 15 14 13 12 11 10 11
29 26 24 20 21 20 18 20 20 18 17 15 14 13 13 11 10 8 7 6 5 4 4 4 4 5 6 7 9 10 11 12 14 15 15 15 13 12 12 11 10 11 10
33 30 29 28 26 25 24 22 23 22 20 18 17 16 15 14 12 11 10 9 8 6 5 4 3 2 2 4 5 6 6 7 8 10 11 11 10 10 9 8 8 9 9
37 34 33 31 30 29 28 25 25 25 23 21 19 17 17 17 16 15 14 13 12 10 9 7 5 3 1 1 2 3 3 4 5 5 5 5 4 4 4 4 4 5 5
37 33 32 31 30 30 29 29 29 27 25 23 22 21 20 19 19 18 17 16 16 14 13 11 10 8 6 5 4 4 3 4 4 4 4 4 4 4 3 3 2 2 1
38 33 30 29 30 31 30 29 29 28 27 26 25 24 22 21 20 20 19 19 19 18 17 16 15 13 12 11 10 9 9 8 6 7 7 7 7 7 6 6 6 6 5
39 34 30 28 32 33 31 31 30 29 28 27 26 25 24 23 22 21 21 21 22 21 20 20 19 18 16 15 15 14 12 11 10 10 10 10 11 11 11 10 10 10 10
Wind_Direction
344 343 341 333 318 305 271 267 245 249 243 241 241 245 248 256 260 262 260 256 251 253 246 251 258 260 266 266 265 262 256 254 260 271 272 281 284 283 291 291 290 288 286
354 356 2 5 9 20 98 238 222 217 220 219 221 210 212 230 248 248 250 249 240 226 216 210 216 266 290 315 308 322 320 289 283 289 300 298 295 299 294 290 293 292 289
10 18 22 31 46 55 66 90 123 131 130 130 127 127 118 116 103 103 114 117 108 96 70 43 31 13 7 352 348 342 334 328 327 328 322 321 319 319 319 315 313 308 302
20 39 38 40 56 67 74 83 90 103 116 109 105 99 84 86 89 91 91 88 81 75 70 57 46 35 25 8 0 353 345 342 338 338 331 328 332 331 330 323 321 314 311
33 41 39 53 63 73 82 83 81 83 91 98 97 91 79 72 79 88 85 86 83 78 70 70 56 55 51 33 23 9 359 0 347 342 338 333 330 331 327 320 313 314 310
45 40 48 59 74 73 77 81 81 79 80 82 84 83 85 77 74 90 88 85 83 79 75 72 59 43 43 38 32 31 23 6 357 340 328 328 323 323 320 319 315 315 326
48 53 51 60 72 75 81 80 72 74 79 72 65 72 69 75 83 87 87 86 81 77 70 62 51 41 35 33 27 31 30 26 6 342 329 324 319 319 319 315 313 306 292
46 47 52 53 63 77 80 77 73 73 80 82 68 68 68 64 82 93 87 82 79 72 64 56 48 32 24 26 26 26 24 14 9 359 342 327 325 323 320 313 311 302 296
49 56 59 75 73 72 78 83 86 82 77 75 74 69 66 58 66 84 86 82 74 64 59 52 45 34 26 21 22 16 15 11 11 12 10 2 354 348 345 339 333 326 319
61 70 70 84 85 86 90 91 89 87 87 85 79 70 63 56 52 67 76 75 70 62 53 50 41 31 27 28 30 22 7 359 2 8 12 8 5 5 5 360 342 330 328
73 79 84 83 82 86 88 91 91 87 85 78 74 69 66 56 52 51 63 65 65 60 50 40 32 28 37 36 34 27 14 2 11 10 10 8 9 10 9 6 358 353 345
88 88 83 89 90 91 95 94 94 93 87 82 79 69 61 59 49 55 59 62 61 60 51 44 38 51 47 42 36 29 29 23 15 11 7 3 0 2 3 6 6 5 5
124 101 98 96 101 104 100 98 92 87 82 73 65 60 51 55 55 59 62 64 66 67 69 72 66 60 58 50 43 37 30 20 16 14 6 360 358 1 359 1 1 5 8
158 138 112 105 99 98 100 95 89 83 81 75 66 57 48 42 38 38 44 54 63 73 81 76 66 55 52 49 43 38 32 29 23 10 3 357 3 7 5 4 3 9 21
168 157 143 128 118 107 100 95 90 78 81 81 73 68 53 37 24 19 27 46 59 66 70 61 55 47 41 39 37 34 31 30 23 17 7 1 4 7 13 10 15 23 32
183 178 175 163 149 144 127 113 101 100 83 82 98 85 61 35 4 14 35 57 78 77 70 59 51 45 41 34 29 24 25 27 23 18 13 9 5 7 13 17 21 29 28
197 191 186 182 182 178 176 175 163 145 142 103 91 121 102 80 65 94 88 78 79 81 74 63 55 49 39 27 27 29 28 27 28 28 23 18 14 14 17 20 21 20 25
199 195 192 195 194 191 189 185 183 183 189 189 176 157 145 123 116 121 110 107 84 76 77 69 57 47 46 44 36 35 34 37 36 35 33 29 26 24 25 23 22 25 21
202 202 201 201 201 200 199 197 196 199 205 210 210 204 182 167 159 147 134 143 108 99 91 78 71 63 54 51 48 46 42 42 42 40 38 36 35 35 32 24 23 36 36
211 212 206 204 203 203 206 206 205 205 209 215 217 214 207 200 204 185 165 136 131 133 118 101 80 70 64 60 54 51 51 50 50 48 46 45 44 46 44 34 28 27 36
212 213 209 206 208 208 209 213 213 213 213 215 220 221 217 213 218 208 186 176 177 167 148 132 109 90 74 64 66 58 49 52 54 54 50 48 49 48 47 49 45 33 23
216 215 213 213 216 213 214 216 215 218 220 220 221 220 221 220 221 220 213 203 198 197 195 185 165 140 89 62 55 49 42 39 44 47 49 47 46 46 49 43 43 48 49
216 216 216 216 218 220 219 219 218 219 221 223 224 223 224 226 227 226 225 223 220 219 218 221 229 235 229 82 43 38 41 32 27 28 31 25 27 32 31 37 28 30 46
215 215 217 219 219 222 221 221 222 224 224 225 228 229 231 232 233 233 233 233 234 233 233 235 235 234 238 247 254 269 290 302 317 322 322 318 307 303 297 292 288 271 202
215 213 213 216 218 221 225 224 226 227 227 228 231 232 234 237 238 239 239 239 239 241 241 243 244 244 244 245 251 259 266 275 277 280 284 284 282 274 262 254 245 239 230
215 215 216 216 223 229 229 227 226 228 230 232 234 236 238 239 240 242 242 242 242 243 244 246 248 250 251 253 255 256 259 262 265 270 272 272 268 267 264 256 248 242 238
Height
818 814 811 808 805 801 799 799 800 801 803 805 807 809 810 811 811 812 812 812 813 813 815 815 816 817 817 816 815 813 812 812 807 803 800 799 799 797 793 790 790 788 785
818 814 810 806 803 800 798 797 797 799 800 801 803 804 806 807 809 809 809 809 810 810 812 812 813 813 813 812 812 810 809 809 806 800 800 799 796 794 791 786 783 780 778
819 815 811 807 803 800 799 798 797 797 799 801 802 803 805 806 807 808 809 810 810 811 812 814 813 813 812 813 811 808 807 806 805 803 800 797 793 790 785 783 780 776 773
822 817 814 810 806 803 802 800 801 801 800 802 803 805 808 808 808 809 811 812 812 813 814 815 814 814 813 812 810 809 807 805 803 801 799 797 794 789 784 781 775 772 767
825 821 818 814 811 808 805 804 805 807 807 807 806 807 810 810 811 812 813 813 815 815 816 817 816 815 812 812 810 808 808 804 804 802 799 796 792 787 784 780 774 768 763
829 826 823 819 814 812 811 811 811 812 814 813 813 812 811 813 816 814 815 816 817 818 819 817 816 815 812 811 811 810 807 807 804 803 799 796 792 789 784 779 773 768 759
831 828 826 823 819 818 816 814 816 819 821 817 823 818 818 816 819 818 817 818 819 820 821 816 816 817 815 812 812 809 808 807 806 803 799 795 791 787 782 777 772 769 763
834 832 831 829 826 824 820 814 823 821 828 832 828 825 823 822 822 820 822 822 823 823 822 820 820 820 817 814 811 809 808 808 804 801 798 795 791 786 782 777 771 764 757
840 838 835 833 833 829 824 826 832 832 831 830 829 831 828 829 825 822 824 825 825 823 825 824 823 820 818 816 813 811 809 806 803 801 797 793 789 784 780 774 769 762 753
843 841 838 836 836 833 834 833 834 834 836 836 834 832 832 831 828 827 826 827 825 827 827 826 824 823 821 817 815 811 809 806 802 797 793 791 786 781 778 773 771 765 758
845 844 842 840 838 836 836 837 838 839 838 837 836 837 837 835 835 832 829 829 827 829 827 827 826 824 821 819 815 811 810 807 801 796 793 789 784 780 776 772 770 766 760
848 846 844 842 841 840 840 841 842 842 841 841 841 840 838 836 835 833 831 830 830 829 830 829 830 826 821 819 816 814 809 804 801 798 794 791 786 781 777 774 771 767 763
849 847 845 845 844 844 843 843 843 843 843 844 844 842 840 838 837 836 835 834 832 832 832 831 831 827 823 821 817 813 810 808 804 800 797 795 791 786 781 775 772 767 764
849 848 847 846 845 844 844 845 845 845 845 845 844 843 843 842 841 840 838 837 836 835 834 833 830 827 824 822 818 814 812 809 805 804 801 798 792 787 783 780 775 770 767
846 847 847 847 846 846 845 846 846 846 845 845 845 846 846 845 844 843 841 840 838 836 833 832 829 827 824 821 818 816 813 809 807 804 802 799 796 792 787 785 782 778 775
845 845 845 845 845 845 846 846 847 847 847 846 846 846 847 848 847 845 843 841 839 837 834 832 831 829 827 825 822 820 817 813 809 807 805 802 800 797 793 790 787 784 782
841 842 843 844 844 845 846 847 847 848 847 847 848 848 849 847 846 845 844 843 841 839 837 836 835 833 831 830 826 822 817 816 812 809 807 805 803 801 798 796 793 791 787
837 839 840 842 843 844 845 846 846 847 847 847 848 848 847 847 846 845 845 844 843 841 839 838 837 836 832 829 827 824 821 817 814 812 808 807 805 803 801 800 798 795 795
832 834 836 838 839 840 841 843 843 845 846 847 847 848 847 847 846 846 845 844 842 841 840 838 836 834 832 830 828 825 823 820 816 814 812 810 808 807 807 806 804 802 800
825 827 829 831 834 836 837 838 839 840 842 843 844 845 845 845 845 844 843 841 841 840 838 837 836 834 832 830 828 827 825 823 819 817 814 812 812 810 809 809 809 808 805
817 820 823 826 827 829 831 832 834 836 837 838 839 841 841 842 842 841 840 839 839 839 837 836 835 834 832 831 828 827 827 824 822 819 818 816 814 813 813 813 811 811 812
809 812 815 817 820 822 824 826 828 830 831 832 834 835 837 837 838 838 837 837 837 837 836 835 834 832 831 830 828 828 827 826 824 822 819 818 818 817 815 816 815 813 813
799 802 805 807 810 813 816 818 820 822 824 826 828 829 830 831 832 833 833 834 834 834 833 833 832 831 829 828 828 826 825 825 824 822 820 820 818 817 817 815 816 816 815
792 795 798 801 803 805 807 810 812 815 817 819 821 823 824 825 826 827 828 829 830 830 830 829 829 828 827 826 826 825 824 823 822 822 821 819 818 817 816 816 815 814 814
783 787 791 793 795 797 800 803 806 808 810 812 814 816 817 818 819 821 823 823 824 824 824 824 824 824 823 823 822 822 821 820 819 818 818 817 816 816 813 813 812 813 813
774 778 782 785 787 790 792 795 797 800 803 806 808 809 811 811 812 814 815 816 816 817 817 817 818 819 819 819 818 818 817 816 815 814 814 814 813 812 812 810 811 810 810